Time,TemperatureF,DewpointF,PressureIn,WindDirection,WindDirectionDegrees,WindSpeedMPH,WindSpeedGustMPH,Humidity,HourlyPrecipIn,Conditions,Clouds,dailyrainin,SoftwareType,DateUTC
2013-08-15 00:00:00,75.0,66.1,30.01,East,89,4.0,4.0,74,0.00,,,0.00,Wunderground v.1.15,2013-08-15 05:00:00,
2013-08-15 00:05:00,74.8,66.3,30.02,East,82,4.0,5.0,75,0.00,,,0.00,Wunderground v.1.15,2013-08-15 05:05:00,
2013-08-15 00:15:00,74.6,66.5,30.02,East,91,4.0,7.0,76,0.00,,,0.00,Wunderground v.1.15,2013-08-15 05:15:00,
2013-08-15 00:25:00,74.6,66.5,30.02,East,98,3.0,5.0,76,0.00,,,0.00,Wunderground v.1.15,2013-08-15 05:25:00,
2013-08-15 00:30:00,74.4,66.3,30.02,East,93,3.0,3.0,76,0.00,,,0.00,Wunderground v.1.15,2013-08-15 05:30:00,
2013-08-15 00:35:00,74.3,66.2,30.01,East,98,3.0,3.0,76,0.00,,,0.00,Wunderground v.1.15,2013-08-15 05:35:00,
2013-08-15 00:40:00,74.2,66.1,30.01,East,93,3.0,5.0,76,0.00,,,0.00,Wunderground v.1.15,2013-08-15 05:40:00,
2013-08-15 00:50:00,74.1,66.4,30.02,East,80,3.0,3.0,77,0.00,,,0.00,Wunderground v.1.15,2013-08-15 05:50:00,
2013-08-15 00:55:00,74.1,66.4,30.02,East,83,3.0,3.0,77,0.00,,,0.00,Wunderground v.1.15,2013-08-15 05:55:00,
2013-08-15 01:05:00,74.2,66.5,30.03,ENE,77,1.0,3.0,77,0.00,,,0.00,Wunderground v.1.15,2013-08-15 06:05:00,
2013-08-15 01:10:00,74.1,66.4,30.03,East,91,1.0,2.0,77,0.00,,,0.00,Wunderground v.1.15,2013-08-15 06:10:00,
2013-08-15 01:15:00,73.9,66.2,30.02,East,100,2.0,3.0,77,0.00,,,0.00,Wunderground v.1.15,2013-08-15 06:15:00,
2013-08-15 01:20:00,73.7,66.4,30.02,East,98,2.0,2.0,78,0.00,,,0.00,Wunderground v.1.15,2013-08-15 06:20:00,
2013-08-15 01:30:00,73.6,66.3,30.02,ESE,103,1.0,1.0,78,0.00,,,0.00,Wunderground v.1.15,2013-08-15 06:30:00,
2013-08-15 01:35:00,73.5,66.2,30.02,ESE,111,2.0,2.0,78,0.00,,,0.00,Wunderground v.1.15,2013-08-15 06:35:00,
2013-08-15 01:40:00,73.4,66.5,30.02,East,96,2.0,5.0,79,0.00,,,0.00,Wunderground v.1.15,2013-08-15 06:40:00,
2013-08-15 01:50:00,73.1,66.2,30.02,East,91,2.0,2.0,79,0.00,,,0.00,Wunderground v.1.15,2013-08-15 06:50:00,
2013-08-15 01:55:00,73.1,66.6,30.02,East,98,2.0,3.0,80,0.00,,,0.00,Wunderground v.1.15,2013-08-15 06:55:00,
2013-08-15 02:00:00,73.0,66.5,30.01,East,98,2.0,2.0,80,0.00,,,0.00,Wunderground v.1.15,2013-08-15 07:00:00,
2013-08-15 02:10:00,73.1,66.6,30.01,East,87,2.0,5.0,80,0.00,,,0.00,Wunderground v.1.15,2013-08-15 07:10:00,
2013-08-15 02:15:00,73.0,66.5,30.01,East,96,3.0,5.0,80,0.00,,,0.00,Wunderground v.1.15,2013-08-15 07:15:00,
2013-08-15 02:25:00,72.9,66.4,30.01,East,96,2.0,3.0,80,0.00,,,0.00,Wunderground v.1.15,2013-08-15 07:25:00,
2013-08-15 02:35:00,72.9,66.4,30.02,ESE,102,1.0,3.0,80,0.00,,,0.00,Wunderground v.1.15,2013-08-15 07:35:00,
2013-08-15 02:40:00,72.9,66.4,30.02,East,99,1.0,1.0,80,0.00,,,0.00,Wunderground v.1.15,2013-08-15 07:40:00,
2013-08-15 02:45:00,72.9,66.4,30.02,ESE,111,1.0,3.0,80,0.00,,,0.00,Wunderground v.1.15,2013-08-15 07:45:00,
2013-08-15 02:50:00,72.8,66.3,30.01,ESE,105,1.0,2.0,80,0.00,,,0.00,Wunderground v.1.15,2013-08-15 07:50:00,
2013-08-15 02:55:00,72.7,65.8,30.02,SE,132,2.0,2.0,79,0.00,,,0.00,Wunderground v.1.15,2013-08-15 07:55:00,
2013-08-15 03:00:00,72.6,65.7,30.02,ESE,114,2.0,2.0,79,0.00,,,0.00,Wunderground v.1.15,2013-08-15 08:00:00,
2013-08-15 03:10:00,72.5,65.6,30.02,ESE,105,2.0,2.0,79,0.00,,,0.00,Wunderground v.1.15,2013-08-15 08:10:00,
2013-08-15 03:15:00,72.5,65.6,30.02,ESE,112,2.0,2.0,79,0.00,,,0.00,Wunderground v.1.15,2013-08-15 08:15:00,
2013-08-15 03:25:00,72.2,65.3,30.01,ESE,115,2.0,3.0,79,0.00,,,0.00,Wunderground v.1.15,2013-08-15 08:25:00,
2013-08-15 03:30:00,72.1,65.6,30.02,ESE,117,2.0,2.0,80,0.00,,,0.00,Wunderground v.1.15,2013-08-15 08:30:00,
2013-08-15 03:35:00,72.0,65.1,30.02,East,101,2.0,2.0,79,0.00,,,0.00,Wunderground v.1.15,2013-08-15 08:35:00,
2013-08-15 03:45:00,71.8,64.9,30.02,ESE,111,2.0,2.0,79,0.00,,,0.00,Wunderground v.1.15,2013-08-15 08:45:00,
2013-08-15 03:50:00,71.7,64.5,30.02,ESE,107,3.0,3.0,78,0.00,,,0.00,Wunderground v.1.15,2013-08-15 08:50:00,
2013-08-15 03:55:00,71.7,64.5,30.02,ESE,110,2.0,3.0,78,0.00,,,0.00,Wunderground v.1.15,2013-08-15 08:55:00,
2013-08-15 04:00:00,71.7,64.5,30.02,East,99,2.0,3.0,78,0.00,,,0.00,Wunderground v.1.15,2013-08-15 09:00:00,
2013-08-15 04:10:00,71.6,64.0,30.02,ESE,103,3.0,3.0,77,0.00,,,0.00,Wunderground v.1.15,2013-08-15 09:10:00,
2013-08-15 04:15:00,71.5,63.9,30.02,ESE,105,3.0,3.0,77,0.00,,,0.00,Wunderground v.1.15,2013-08-15 09:15:00,
2013-08-15 04:25:00,71.3,63.3,30.03,ESE,123,2.0,4.0,76,0.00,,,0.00,Wunderground v.1.15,2013-08-15 09:25:00,
2013-08-15 04:30:00,71.3,63.3,30.03,East,93,3.0,3.0,76,0.00,,,0.00,Wunderground v.1.15,2013-08-15 09:30:00,
2013-08-15 04:40:00,71.0,63.4,30.02,SE,125,2.0,2.0,77,0.00,,,0.00,Wunderground v.1.15,2013-08-15 09:40:00,
2013-08-15 04:50:00,70.8,63.6,30.03,ESE,114,2.0,2.0,78,0.00,,,0.00,Wunderground v.1.15,2013-08-15 09:50:00,
2013-08-15 04:55:00,70.7,63.5,30.03,ENE,78,2.0,3.0,78,0.00,,,0.00,Wunderground v.1.15,2013-08-15 09:55:00,
2013-08-15 05:00:00,70.6,63.0,30.02,East,91,3.0,3.0,77,0.00,,,0.00,Wunderground v.1.15,2013-08-15 10:00:00,
2013-08-15 05:05:00,70.6,63.0,30.02,ESE,104,3.0,3.0,77,0.00,,,0.00,Wunderground v.1.15,2013-08-15 10:05:00,
2013-08-15 05:10:00,70.4,63.2,30.03,ESE,102,3.0,3.0,78,0.00,,,0.00,Wunderground v.1.15,2013-08-15 10:10:00,
2013-08-15 05:15:00,70.4,63.2,30.03,ESE,117,2.0,3.0,78,0.00,,,0.00,Wunderground v.1.15,2013-08-15 10:15:00,
2013-08-15 05:20:00,70.2,63.0,30.02,ESE,107,2.0,2.0,78,0.00,,,0.00,Wunderground v.1.15,2013-08-15 10:20:00,
2013-08-15 05:25:00,70.1,63.3,30.03,ESE,103,2.0,2.0,79,0.00,,,0.00,Wunderground v.1.15,2013-08-15 10:25:00,
2013-08-15 05:35:00,69.9,63.4,30.02,ESE,107,2.0,2.0,80,0.00,,,0.00,Wunderground v.1.15,2013-08-15 10:35:00,
2013-08-15 05:40:00,69.8,63.3,30.03,ESE,107,2.0,2.0,80,0.00,,,0.00,Wunderground v.1.15,2013-08-15 10:40:00,
2013-08-15 05:45:00,69.8,63.3,30.03,ESE,123,2.0,4.0,80,0.00,,,0.00,Wunderground v.1.15,2013-08-15 10:45:00,
2013-08-15 05:55:00,69.6,63.2,30.03,ESE,107,2.0,2.0,80,0.00,,,0.00,Wunderground v.1.15,2013-08-15 10:55:00,
2013-08-15 06:00:00,69.5,63.1,30.03,ESE,106,2.0,2.0,80,0.00,,,0.00,Wunderground v.1.15,2013-08-15 11:00:00,
2013-08-15 06:05:00,69.5,63.1,30.03,East,87,2.0,2.0,80,0.00,,,0.00,Wunderground v.1.15,2013-08-15 11:05:00,
2013-08-15 06:15:00,69.5,63.1,30.03,East,96,2.0,3.0,80,0.00,,,0.00,Wunderground v.1.15,2013-08-15 11:15:00,
2013-08-15 06:20:00,69.5,63.1,30.03,SE,127,2.0,2.0,80,0.00,,,0.00,Wunderground v.1.15,2013-08-15 11:20:00,
2013-08-15 06:25:00,69.4,63.0,30.03,ESE,119,3.0,3.0,80,0.00,,,0.00,Wunderground v.1.15,2013-08-15 11:25:00,
2013-08-15 06:30:00,69.3,62.9,30.04,ESE,119,4.0,4.0,80,0.00,,,0.00,Wunderground v.1.15,2013-08-15 11:30:00,
2013-08-15 06:40:00,69.4,63.0,30.04,ENE,72,2.0,3.0,80,0.00,,,0.00,Wunderground v.1.15,2013-08-15 11:40:00,
2013-08-15 06:45:00,69.3,62.9,30.04,SE,138,2.0,3.0,80,0.00,,,0.00,Wunderground v.1.15,2013-08-15 11:45:00,
2013-08-15 06:55:00,68.8,62.7,30.04,SE,140,4.0,6.0,81,0.00,,,0.00,Wunderground v.1.15,2013-08-15 11:55:00,
2013-08-15 07:00:00,68.8,62.7,30.05,SE,126,4.0,5.0,81,0.00,,,0.00,Wunderground v.1.15,2013-08-15 12:00:00,
2013-08-15 07:05:00,68.7,62.6,30.05,ESE,103,3.0,5.0,81,0.00,,,0.00,Wunderground v.1.15,2013-08-15 12:05:00,
2013-08-15 07:10:00,68.6,62.5,30.05,ESE,105,4.0,5.0,81,0.00,,,0.00,Wunderground v.1.15,2013-08-15 12:10:00,
2013-08-15 07:20:00,68.5,62.1,30.05,ESE,123,4.0,4.0,80,0.00,,,0.00,Wunderground v.1.15,2013-08-15 12:20:00,
2013-08-15 07:30:00,68.5,62.1,30.05,ESE,105,5.0,5.0,80,0.00,,,0.00,Wunderground v.1.15,2013-08-15 12:30:00,
2013-08-15 07:40:00,68.3,61.9,30.05,ESE,123,5.0,5.0,80,0.00,,,0.00,Wunderground v.1.15,2013-08-15 12:40:00,
2013-08-15 07:45:00,68.2,61.8,30.05,SE,126,6.0,6.0,80,0.00,,,0.00,Wunderground v.1.15,2013-08-15 12:45:00,
2013-08-15 07:50:00,68.3,61.9,30.05,SE,129,6.0,6.0,80,0.00,,,0.00,Wunderground v.1.15,2013-08-15 12:50:00,
2013-08-15 08:00:00,68.4,61.3,30.05,SE,145,6.0,10.0,78,0.00,,,0.00,Wunderground v.1.15,2013-08-15 13:00:00,
2013-08-15 08:05:00,68.4,61.3,30.06,SE,125,7.0,10.0,78,0.00,,,0.00,Wunderground v.1.15,2013-08-15 13:05:00,
2013-08-15 08:10:00,68.5,61.4,30.06,East,98,7.0,9.0,78,0.00,,,0.00,Wunderground v.1.15,2013-08-15 13:10:00,
2013-08-15 08:15:00,68.6,61.1,30.06,ESE,109,7.0,9.0,77,0.00,,,0.00,Wunderground v.1.15,2013-08-15 13:15:00,
2013-08-15 08:25:00,68.8,60.6,30.07,SE,146,6.0,7.0,75,0.00,,,0.00,Wunderground v.1.15,2013-08-15 13:25:00,
2013-08-15 08:30:00,68.8,60.6,30.07,ESE,120,7.0,8.0,75,0.00,,,0.00,Wunderground v.1.15,2013-08-15 13:30:00,
2013-08-15 08:35:00,68.7,60.5,30.07,SE,135,6.0,8.0,75,0.00,,,0.00,Wunderground v.1.15,2013-08-15 13:35:00,
2013-08-15 08:40:00,68.8,60.2,30.07,SSE,155,6.0,9.0,74,0.00,,,0.00,Wunderground v.1.15,2013-08-15 13:40:00,
2013-08-15 08:45:00,68.5,59.9,30.07,SE,142,8.0,9.0,74,0.00,,,0.00,Wunderground v.1.15,2013-08-15 13:45:00,
2013-08-15 08:55:00,68.6,59.6,30.07,SE,132,7.0,9.0,73,0.00,,,0.00,Wunderground v.1.15,2013-08-15 13:55:00,
2013-08-15 09:05:00,68.9,59.9,30.07,SE,135,6.0,7.0,73,0.00,,,0.00,Wunderground v.1.15,2013-08-15 14:05:00,
2013-08-15 09:10:00,69.1,59.7,30.07,SE,141,6.0,6.0,72,0.00,,,0.00,Wunderground v.1.15,2013-08-15 14:10:00,
2013-08-15 09:15:00,69.0,59.6,30.07,SE,142,6.0,6.0,72,0.00,,,0.00,Wunderground v.1.15,2013-08-15 14:15:00,
2013-08-15 09:20:00,69.0,59.6,30.07,ESE,110,6.0,6.0,72,0.00,,,0.00,Wunderground v.1.15,2013-08-15 14:20:00,
2013-08-15 09:25:00,69.3,59.9,30.07,SE,135,5.0,6.0,72,0.00,,,0.00,Wunderground v.1.15,2013-08-15 14:25:00,
2013-08-15 09:30:00,69.5,59.7,30.07,ESE,123,4.0,9.0,71,0.00,,,0.00,Wunderground v.1.15,2013-08-15 14:30:00,
2013-08-15 09:35:00,70.0,60.2,30.07,SE,132,5.0,9.0,71,0.00,,,0.00,Wunderground v.1.15,2013-08-15 14:35:00,
2013-08-15 09:40:00,70.1,59.9,30.08,ESE,111,5.0,5.0,70,0.00,,,0.00,Wunderground v.1.15,2013-08-15 14:40:00,
2013-08-15 09:45:00,70.2,60.0,30.08,SSE,165,5.0,6.0,70,0.00,,,0.00,Wunderground v.1.15,2013-08-15 14:45:00,
2013-08-15 09:55:00,70.8,59.7,30.07,ESE,123,4.0,4.0,68,0.00,,,0.00,Wunderground v.1.15,2013-08-15 14:55:00,
2013-08-15 10:00:00,70.7,59.6,30.07,East,88,5.0,6.0,68,0.00,,,0.00,Wunderground v.1.15,2013-08-15 15:00:00,
2013-08-15 10:10:00,71.0,59.9,30.07,SE,144,6.0,6.0,68,0.00,,,0.00,Wunderground v.1.15,2013-08-15 15:10:00,
2013-08-15 10:15:00,71.0,59.9,30.07,ESE,116,5.0,6.0,68,0.00,,,0.00,Wunderground v.1.15,2013-08-15 15:15:00,
2013-08-15 10:20:00,71.2,60.1,30.07,SE,134,5.0,6.0,68,0.00,,,0.00,Wunderground v.1.15,2013-08-15 15:20:00,
2013-08-15 10:25:00,71.2,60.1,30.07,ENE,76,6.0,6.0,68,0.00,,,0.00,Wunderground v.1.15,2013-08-15 15:25:00,
2013-08-15 10:30:00,71.7,60.2,30.07,ESE,121,5.0,5.0,67,0.00,,,0.00,Wunderground v.1.15,2013-08-15 15:30:00,
2013-08-15 10:35:00,71.8,59.8,30.07,SE,141,5.0,5.0,66,0.00,,,0.00,Wunderground v.1.15,2013-08-15 15:35:00,
2013-08-15 10:45:00,72.3,59.9,30.07,SE,144,7.0,7.0,65,0.00,,,0.00,Wunderground v.1.15,2013-08-15 15:45:00,
2013-08-15 10:50:00,72.8,60.3,30.07,ESE,122,7.0,8.0,65,0.00,,,0.00,Wunderground v.1.15,2013-08-15 15:50:00,
2013-08-15 10:55:00,73.0,60.5,30.07,SSE,150,6.0,8.0,65,0.00,,,0.00,Wunderground v.1.15,2013-08-15 15:55:00,
2013-08-15 11:00:00,73.0,60.5,30.07,SE,141,6.0,6.0,65,0.00,,,0.00,Wunderground v.1.15,2013-08-15 16:00:00,
2013-08-15 11:05:00,73.3,60.8,30.07,SE,134,6.0,6.0,65,0.00,,,0.00,Wunderground v.1.15,2013-08-15 16:05:00,
2013-08-15 11:10:00,73.4,60.9,30.07,ESE,108,6.0,6.0,65,0.00,,,0.00,Wunderground v.1.15,2013-08-15 16:10:00,
2013-08-15 11:15:00,73.7,60.3,30.07,ESE,119,7.0,7.0,63,0.00,,,0.00,Wunderground v.1.15,2013-08-15 16:15:00,
2013-08-15 11:30:00,75.0,61.1,30.07,SE,132,6.0,8.0,62,0.00,,,0.00,Wunderground v.1.15,2013-08-15 16:30:00,
2013-08-15 11:35:00,75.0,61.1,30.07,ENE,76,6.0,8.0,62,0.00,,,0.00,Wunderground v.1.15,2013-08-15 16:35:00,
2013-08-15 11:45:00,75.6,61.2,30.06,SE,126,5.0,5.0,61,0.00,,,0.00,Wunderground v.1.15,2013-08-15 16:45:00,
2013-08-15 11:50:00,76.1,61.7,30.06,ESE,106,5.0,5.0,61,0.00,,,0.00,Wunderground v.1.15,2013-08-15 16:50:00,
2013-08-15 11:55:00,76.2,61.3,30.06,SSE,157,5.0,6.0,60,0.00,,,0.00,Wunderground v.1.15,2013-08-15 16:55:00,
2013-08-15 12:00:00,76.2,61.3,30.06,SE,140,5.0,5.0,60,0.00,,,0.00,Wunderground v.1.15,2013-08-15 17:00:00,
2013-08-15 12:05:00,76.6,61.7,30.06,ESE,121,5.0,8.0,60,0.00,,,0.00,Wunderground v.1.15,2013-08-15 17:05:00,
2013-08-15 12:10:00,76.4,61.5,30.06,SSE,163,6.0,6.0,60,0.00,,,0.00,Wunderground v.1.15,2013-08-15 17:10:00,
2013-08-15 12:15:00,77.0,62.0,30.05,East,100,6.0,6.0,60,0.00,,,0.00,Wunderground v.1.15,2013-08-15 17:15:00,
2013-08-15 12:20:00,77.5,62.5,30.05,ESE,122,5.0,5.0,60,0.00,,,0.00,Wunderground v.1.15,2013-08-15 17:20:00,
2013-08-15 12:30:00,77.8,62.8,30.05,ESE,121,5.0,5.0,60,0.00,,,0.00,Wunderground v.1.15,2013-08-15 17:30:00,
2013-08-15 12:35:00,78.1,62.6,30.05,SE,137,5.0,5.0,59,0.00,,,0.00,Wunderground v.1.15,2013-08-15 17:35:00,
2013-08-15 12:45:00,79.1,63.1,30.05,SE,137,4.0,6.0,58,0.00,,,0.00,Wunderground v.1.15,2013-08-15 17:45:00,
2013-08-15 12:50:00,78.8,62.8,30.05,East,90,6.0,6.0,58,0.00,,,0.00,Wunderground v.1.15,2013-08-15 17:50:00,
2013-08-15 12:55:00,78.6,63.6,30.05,East,84,7.0,7.0,60,0.00,,,0.00,Wunderground v.1.15,2013-08-15 17:55:00,
2013-08-15 13:05:00,78.9,63.8,30.04,East,95,6.0,8.0,60,0.00,,,0.00,Wunderground v.1.15,2013-08-15 18:05:00,
2013-08-15 13:10:00,79.3,63.7,30.04,SE,134,5.0,5.0,59,0.00,,,0.00,Wunderground v.1.15,2013-08-15 18:10:00,
2013-08-15 13:15:00,79.4,63.8,30.04,SE,134,5.0,5.0,59,0.00,,,0.00,Wunderground v.1.15,2013-08-15 18:15:00,
2013-08-15 13:25:00,79.5,63.9,30.03,South,178,5.0,8.0,59,0.00,,,0.00,Wunderground v.1.15,2013-08-15 18:25:00,
2013-08-15 13:30:00,79.8,64.2,30.03,SSW,207,7.0,7.0,59,0.00,,,0.00,Wunderground v.1.15,2013-08-15 18:30:00,
2013-08-15 13:35:00,80.0,64.9,30.03,SSW,207,7.0,7.0,60,0.00,,,0.00,Wunderground v.1.15,2013-08-15 18:35:00,
2013-08-15 13:45:00,79.8,64.2,30.03,South,173,7.0,7.0,59,0.00,,,0.00,Wunderground v.1.15,2013-08-15 18:45:00,
2013-08-15 13:50:00,80.2,65.1,30.02,ENE,63,5.0,5.0,60,0.00,,,0.00,Wunderground v.1.15,2013-08-15 18:50:00,
2013-08-15 14:05:00,81.1,64.9,30.02,South,189,4.0,5.0,58,0.00,,,0.00,Wunderground v.1.15,2013-08-15 19:05:00,
2013-08-15 14:10:00,81.7,65.5,30.01,SE,139,4.0,5.0,58,0.00,,,0.00,Wunderground v.1.15,2013-08-15 19:10:00,
2013-08-15 14:20:00,81.7,65.5,30.01,SSE,153,5.0,7.0,58,0.00,,,0.00,Wunderground v.1.15,2013-08-15 19:20:00,
2013-08-15 14:25:00,81.7,65.5,30.00,ESE,104,4.0,7.0,58,0.00,,,0.00,Wunderground v.1.15,2013-08-15 19:25:00,
2013-08-15 14:30:00,82.2,66.0,30.00,East,86,4.0,5.0,58,0.00,,,0.00,Wunderground v.1.15,2013-08-15 19:30:00,
2013-08-15 14:40:00,82.5,65.7,29.99,South,188,5.0,5.0,57,0.00,,,0.00,Wunderground v.1.15,2013-08-15 19:40:00,
2013-08-15 14:45:00,82.4,65.6,29.99,South,171,4.0,5.0,57,0.00,,,0.00,Wunderground v.1.15,2013-08-15 19:45:00,
2013-08-15 14:50:00,82.5,66.2,29.99,ESE,109,4.0,8.0,58,0.00,,,0.00,Wunderground v.1.15,2013-08-15 19:50:00,
2013-08-15 14:55:00,82.1,65.9,29.99,ESE,113,6.0,8.0,58,0.00,,,0.00,Wunderground v.1.15,2013-08-15 19:55:00,
2013-08-15 15:00:00,82.3,66.0,29.99,SE,142,5.0,5.0,58,0.00,,,0.00,Wunderground v.1.15,2013-08-15 20:00:00,
2013-08-15 15:10:00,83.0,66.2,29.99,SE,130,3.0,5.0,57,0.00,,,0.00,Wunderground v.1.15,2013-08-15 20:10:00,
2013-08-15 15:20:00,83.2,65.9,29.98,East,79,5.0,7.0,56,0.00,,,0.00,Wunderground v.1.15,2013-08-15 20:20:00,
2013-08-15 15:25:00,83.5,66.2,29.98,ESE,121,4.0,7.0,56,0.00,,,0.00,Wunderground v.1.15,2013-08-15 20:25:00,
2013-08-15 15:35:00,83.8,65.9,29.98,ENE,74,6.0,8.0,55,0.00,,,0.00,Wunderground v.1.15,2013-08-15 20:35:00,
2013-08-15 15:40:00,83.9,66.0,29.98,East,85,6.0,6.0,55,0.00,,,0.00,Wunderground v.1.15,2013-08-15 20:40:00,
2013-08-15 15:50:00,83.8,65.9,29.97,ESE,115,3.0,3.0,55,0.00,,,0.00,Wunderground v.1.15,2013-08-15 20:50:00,
2013-08-15 15:55:00,84.2,66.3,29.98,SE,130,4.0,5.0,55,0.00,,,0.00,Wunderground v.1.15,2013-08-15 20:55:00,
2013-08-15 16:00:00,84.3,66.4,29.98,SE,145,4.0,4.0,55,0.00,,,0.00,Wunderground v.1.15,2013-08-15 21:00:00,
2013-08-15 16:05:00,84.7,66.2,29.98,ESE,113,4.0,5.0,54,0.00,,,0.00,Wunderground v.1.15,2013-08-15 21:05:00,
2013-08-15 16:10:00,84.3,66.4,29.97,ESE,116,5.0,5.0,55,0.00,,,0.00,Wunderground v.1.15,2013-08-15 21:10:00,
2013-08-15 16:15:00,84.1,66.2,29.98,ESE,112,6.0,6.0,55,0.00,,,0.00,Wunderground v.1.15,2013-08-15 21:15:00,
2013-08-15 16:25:00,84.3,65.8,29.98,SE,127,3.0,5.0,54,0.00,,,0.00,Wunderground v.1.15,2013-08-15 21:25:00,
2013-08-15 16:30:00,84.4,65.9,29.98,SSW,192,3.0,5.0,54,0.00,,,0.00,Wunderground v.1.15,2013-08-15 21:30:00,
2013-08-15 16:35:00,84.1,66.2,29.98,SE,133,4.0,5.0,55,0.00,,,0.00,Wunderground v.1.15,2013-08-15 21:35:00,
2013-08-15 16:45:00,84.0,66.6,29.98,SE,130,3.0,3.0,56,0.00,,,0.00,Wunderground v.1.15,2013-08-15 21:45:00,
2013-08-15 16:55:00,83.4,66.6,29.97,ESE,115,5.0,5.0,57,0.00,,,0.00,Wunderground v.1.15,2013-08-15 21:55:00,
2013-08-15 17:05:00,83.6,66.2,29.97,East,82,5.0,8.0,56,0.00,,,0.00,Wunderground v.1.15,2013-08-15 22:05:00,
2013-08-15 17:10:00,83.5,66.2,29.97,East,82,6.0,6.0,56,0.00,,,0.00,Wunderground v.1.15,2013-08-15 22:10:00,
2013-08-15 17:15:00,83.6,66.2,29.97,ESE,109,6.0,9.0,56,0.00,,,0.00,Wunderground v.1.15,2013-08-15 22:15:00,
2013-08-15 17:20:00,83.7,66.8,29.97,SSE,153,5.0,8.0,57,0.00,,,0.00,Wunderground v.1.15,2013-08-15 22:20:00,
2013-08-15 17:30:00,84.1,66.7,29.96,SSE,152,6.0,6.0,56,0.00,,,0.00,Wunderground v.1.15,2013-08-15 22:30:00,
2013-08-15 17:35:00,84.0,66.1,29.96,SE,143,6.0,6.0,55,0.00,,,0.00,Wunderground v.1.15,2013-08-15 22:35:00,
2013-08-15 17:40:00,83.7,66.3,29.96,ESE,107,5.0,5.0,56,0.00,,,0.00,Wunderground v.1.15,2013-08-15 22:40:00,
2013-08-15 17:50:00,83.9,66.0,29.96,East,86,5.0,6.0,55,0.00,,,0.00,Wunderground v.1.15,2013-08-15 22:50:00,
2013-08-15 17:55:00,83.8,66.4,29.96,SE,127,6.0,6.0,56,0.00,,,0.00,Wunderground v.1.15,2013-08-15 22:55:00,
2013-08-15 18:05:00,84.0,66.6,29.96,ESE,107,5.0,9.0,56,0.00,,,0.00,Wunderground v.1.15,2013-08-15 23:05:00,
2013-08-15 18:15:00,84.2,66.3,29.96,SE,140,4.0,7.0,55,0.00,,,0.00,Wunderground v.1.15,2013-08-15 23:15:00,
2013-08-15 18:25:00,83.9,65.5,29.96,SE,130,4.0,5.0,54,0.00,,,0.00,Wunderground v.1.15,2013-08-15 23:25:00,
2013-08-15 18:30:00,83.8,65.9,29.96,SE,127,3.0,3.0,55,0.00,,,0.00,Wunderground v.1.15,2013-08-15 23:30:00,
2013-08-15 18:35:00,83.7,65.8,29.95,SE,130,3.0,5.0,55,0.00,,,0.00,Wunderground v.1.15,2013-08-15 23:35:00,
2013-08-15 18:45:00,83.3,66.0,29.94,SSE,162,4.0,5.0,56,0.00,,,0.00,Wunderground v.1.15,2013-08-15 23:45:00,
2013-08-15 18:55:00,83.2,65.9,29.94,SE,132,5.0,5.0,56,0.00,,,0.00,Wunderground v.1.15,2013-08-15 23:55:00,
2013-08-15 19:00:00,82.7,65.9,29.93,SE,132,4.0,7.0,57,0.00,,,0.00,Wunderground v.1.15,2013-08-16 00:00:00,
2013-08-15 19:10:00,82.1,65.9,29.92,ESE,121,5.0,5.0,58,0.00,,,0.00,Wunderground v.1.15,2013-08-16 00:10:00,
2013-08-15 19:20:00,82.3,66.0,29.96,NNE,15,4.0,4.0,58,0.00,,,0.00,Wunderground v.1.15,2013-08-16 00:20:00,
2013-08-15 19:25:00,82.5,65.7,29.95,East,81,3.0,6.0,57,0.00,,,0.00,Wunderground v.1.15,2013-08-16 00:25:00,
2013-08-15 19:30:00,82.5,66.2,29.96,East,90,3.0,3.0,58,0.00,,,0.00,Wunderground v.1.15,2013-08-16 00:30:00,
2013-08-15 19:35:00,82.5,66.2,29.96,NE,42,3.0,4.0,58,0.00,,,0.00,Wunderground v.1.15,2013-08-16 00:35:00,
2013-08-15 19:40:00,82.4,66.1,29.96,NNE,33,3.0,3.0,58,0.00,,,0.00,Wunderground v.1.15,2013-08-16 00:40:00,
2013-08-15 19:50:00,82.5,66.2,29.96,East,79,3.0,6.0,58,0.00,,,0.00,Wunderground v.1.15,2013-08-16 00:50:00,
2013-08-15 19:55:00,82.2,66.0,29.96,East,92,4.0,7.0,58,0.00,,,0.00,Wunderground v.1.15,2013-08-16 00:55:00,
2013-08-15 20:00:00,82.0,66.3,29.96,ESE,107,4.0,4.0,59,0.00,,,0.00,Wunderground v.1.15,2013-08-16 01:00:00,
2013-08-15 20:05:00,81.8,66.1,29.96,ESE,104,4.0,4.0,59,0.00,,,0.00,Wunderground v.1.15,2013-08-16 01:05:00,
2013-08-15 20:10:00,81.7,66.5,29.96,East,94,2.0,2.0,60,0.00,,,0.00,Wunderground v.1.15,2013-08-16 01:10:00,
2013-08-15 20:20:00,81.3,66.1,29.97,East,98,2.0,3.0,60,0.00,,,0.00,Wunderground v.1.15,2013-08-16 01:20:00,
2013-08-15 20:25:00,81.1,66.4,29.97,East,96,2.0,3.0,61,0.00,,,0.00,Wunderground v.1.15,2013-08-16 01:25:00,
2013-08-15 20:30:00,80.9,66.2,29.97,East,96,2.0,2.0,61,0.00,,,0.00,Wunderground v.1.15,2013-08-16 01:30:00,
2013-08-15 20:35:00,80.8,66.1,29.97,East,96,1.0,2.0,61,0.00,,,0.00,Wunderground v.1.15,2013-08-16 01:35:00,
2013-08-15 20:40:00,80.7,66.5,29.97,East,96,2.0,3.0,62,0.00,,,0.00,Wunderground v.1.15,2013-08-16 01:40:00,
2013-08-15 20:50:00,80.2,66.5,29.97,East,98,2.0,2.0,63,0.00,,,0.00,Wunderground v.1.15,2013-08-16 01:50:00,
2013-08-15 20:55:00,79.9,66.2,29.97,East,98,1.0,2.0,63,0.00,,,0.00,Wunderground v.1.15,2013-08-16 01:55:00,
2013-08-15 21:00:00,79.8,66.1,29.97,East,98,1.0,5.0,63,0.00,,,0.00,Wunderground v.1.15,2013-08-16 02:00:00,
2013-08-15 21:05:00,79.5,66.3,29.97,East,98,2.0,5.0,64,0.00,,,0.00,Wunderground v.1.15,2013-08-16 02:05:00,
2013-08-15 21:10:00,79.3,66.1,29.97,East,92,2.0,2.0,64,0.00,,,0.00,Wunderground v.1.15,2013-08-16 02:10:00,
2013-08-15 21:20:00,79.0,65.8,29.97,East,92,2.0,2.0,64,0.00,,,0.00,Wunderground v.1.15,2013-08-16 02:20:00,
2013-08-15 21:25:00,78.8,65.6,29.98,East,92,2.0,2.0,64,0.00,,,0.00,Wunderground v.1.15,2013-08-16 02:25:00,
2013-08-15 21:30:00,78.7,65.5,29.98,East,92,1.0,2.0,64,0.00,,,0.00,Wunderground v.1.15,2013-08-16 02:30:00,
2013-08-15 21:45:00,78.7,65.5,29.99,ESE,109,2.0,3.0,64,0.00,,,0.00,Wunderground v.1.15,2013-08-16 02:45:00,
2013-08-15 21:50:00,78.4,65.7,29.98,ESE,105,2.0,3.0,65,0.00,,,0.00,Wunderground v.1.15,2013-08-16 02:50:00,
2013-08-15 22:00:00,77.8,65.1,29.99,ESE,109,3.0,3.0,65,0.00,,,0.00,Wunderground v.1.15,2013-08-16 03:00:00,
2013-08-15 22:05:00,77.6,65.3,29.99,SE,128,3.0,3.0,66,0.00,,,0.00,Wunderground v.1.15,2013-08-16 03:05:00,
2013-08-15 22:10:00,77.5,65.2,29.99,SE,128,2.0,2.0,66,0.00,,,0.00,Wunderground v.1.15,2013-08-16 03:10:00,
2013-08-15 22:20:00,77.1,64.9,29.98,SE,133,2.0,2.0,66,0.00,,,0.00,Wunderground v.1.15,2013-08-16 03:20:00,
2013-08-15 22:25:00,76.9,64.7,29.99,SE,128,2.0,2.0,66,0.00,,,0.00,Wunderground v.1.15,2013-08-16 03:25:00,
2013-08-15 22:30:00,76.9,64.7,29.98,SE,127,2.0,2.0,66,0.00,,,0.00,Wunderground v.1.15,2013-08-16 03:30:00,
2013-08-15 22:35:00,76.8,64.6,29.98,SE,136,3.0,4.0,66,0.00,,,0.00,Wunderground v.1.15,2013-08-16 03:35:00,
2013-08-15 22:40:00,76.8,64.6,29.98,SE,131,3.0,4.0,66,0.00,,,0.00,Wunderground v.1.15,2013-08-16 03:40:00,
2013-08-15 22:45:00,76.8,64.6,29.98,SE,135,3.0,4.0,66,0.00,,,0.00,Wunderground v.1.15,2013-08-16 03:45:00,
2013-08-15 22:50:00,76.8,65.0,29.98,SE,135,3.0,3.0,67,0.00,,,0.00,Wunderground v.1.15,2013-08-16 03:50:00,
2013-08-15 22:55:00,76.7,64.9,29.98,SE,130,2.0,3.0,67,0.00,,,0.00,Wunderground v.1.15,2013-08-16 03:55:00,
2013-08-15 23:00:00,76.7,64.9,29.98,SE,130,2.0,2.0,67,0.00,,,0.00,Wunderground v.1.15,2013-08-16 04:00:00,
2013-08-15 23:05:00,76.6,64.8,29.99,SE,130,1.0,2.0,67,0.00,,,0.00,Wunderground v.1.15,2013-08-16 04:05:00,
2013-08-15 23:10:00,76.6,64.8,29.99,SE,130,2.0,2.0,67,0.00,,,0.00,Wunderground v.1.15,2013-08-16 04:10:00,
2013-08-15 23:15:00,76.7,64.9,29.98,SE,130,2.0,2.0,67,0.00,,,0.00,Wunderground v.1.15,2013-08-16 04:15:00,
2013-08-15 23:25:00,76.6,64.8,29.98,ESE,119,2.0,3.0,67,0.00,,,0.00,Wunderground v.1.15,2013-08-16 04:25:00,
2013-08-15 23:30:00,76.4,65.1,29.98,SE,124,3.0,5.0,68,0.00,,,0.00,Wunderground v.1.15,2013-08-16 04:30:00,
2013-08-15 23:35:00,76.3,65.0,29.98,SE,134,3.0,5.0,68,0.00,,,0.00,Wunderground v.1.15,2013-08-16 04:35:00,
2013-08-15 23:40:00,76.3,65.0,29.98,SE,135,3.0,3.0,68,0.00,,,0.00,Wunderground v.1.15,2013-08-16 04:40:00,
2013-08-15 23:45:00,76.2,64.9,29.98,SE,134,2.0,3.0,68,0.00,,,0.00,Wunderground v.1.15,2013-08-16 04:45:00,
2013-08-15 23:50:00,76.1,65.2,29.98,SE,134,1.0,1.0,69,0.00,,,0.00,Wunderground v.1.15,2013-08-16 04:50:00,
2013-08-15 23:55:00,76.0,65.1,29.98,SE,134,2.0,2.0,69,0.00,,,0.00,Wunderground v.1.15,2013-08-16 04:55:00,